Charlevoix, MI

2:51 PM EST on February 18, 2018 (GMT -0500)
Charlevoix Municipal

Weather History for KCVX - March, 2011

Change the Weather History Date:

Wednesday, March 9, 2011

  Actual Average Record
Temperature  
Mean Temperature 30 °F -  
Max Temperature 32 °F 52 °F 57 °F (2016)
Min Temperature 28 °F 31 °F -2 °F (2008)
Degree Days  
Heating Degree Days 35    
Moisture  
Dew Point 28 °F    
Average Humidity 88    
Maximum Humidity 100    
Minimum Humidity 74    
Precipitation  
Precipitation 0.00 in - - ()
Sea Level Pressure  
Sea Level Pressure 30.02 in    
Wind  
Wind Speed 10 mph (East)    
Max Wind Speed 18 mph    
Max Gust Speed 21 mph    
Visibility 6 miles    
Events Snow    
Averages and records for this station are not official NWS values.
T = Trace of Precipitation, MM = Missing Value Source: NWS Daily Summary

Daily Weather History Graph

Daily Weather History Graph

Search for Another Location

Airport or City:

Trip Planner

Search our weather history database for the weather conditions in past years. The results will help you decide how hot, cold, wet, or windy it might be!

Date:

Astronomy

Mar. 09, 2011 Rise Set
Actual Time 7:05 AM EST 6:38 PM EST
Civil Twilight 6:35 AM EST 7:08 PM EST
Nautical Twilight 6:01 AM EST 7:42 PM EST
Astronomical Twilight 5:27 AM EST 8:17 PM EST
Moon 8:39 AM EST (3/9) 11:54 PM EST (3/9)
Length of Visible Light 12h 32m
Length of Day
11h 33m
Waxing Crescent, 20% of the Moon is Illuminated
Mar 9
Waxing Crescent
Mar 12
First Quarter
Mar 19
Full
Mar 26
Last Quarter
Apr 3
New

Hourly Weather History & Observations

Time (EST) Temp. Windchill Dew Point Humidity Pressure Visibility Wind Dir Wind Speed Gust Speed Precip Events Conditions
12:14 AM 28.4 °F 19.7 °F 21.2 °F 74% 30.27 in 10.0 mi East 9.2 mph - N/A   Scattered Clouds
12:34 AM 28.4 °F 19.7 °F 21.2 °F 74% 30.26 in 10.0 mi East 9.2 mph - N/A   Scattered Clouds
12:54 AM 28.4 °F 20.4 °F 21.2 °F 74% 30.25 in 10.0 mi East 8.1 mph - N/A   Clear
1:14 AM 28.4 °F 20.4 °F 23.0 °F 80% 30.24 in 10.0 mi East 8.1 mph - N/A   Mostly Cloudy
1:34 AM 30.2 °F 21.3 °F 23.0 °F 75% 30.24 in 10.0 mi East 10.4 mph - N/A   Overcast
1:54 AM 30.2 °F 20.8 °F 23.0 °F 75% 30.25 in 10.0 mi East 11.5 mph - N/A   Overcast
2:14 AM 30.2 °F 20.2 °F 24.8 °F 80% 30.22 in 10.0 mi East 12.7 mph - N/A   Overcast
2:34 AM 30.2 °F 21.9 °F 24.8 °F 80% 30.22 in 10.0 mi East 9.2 mph - N/A   Mostly Cloudy
2:54 AM 30.2 °F 22.6 °F 24.8 °F 80% 30.22 in 10.0 mi East 8.1 mph - N/A   Scattered Clouds
3:14 AM 30.2 °F 21.3 °F 24.8 °F 80% 30.20 in 10.0 mi East 10.4 mph 16.1 mph N/A   Mostly Cloudy
3:34 AM 30.2 °F 21.3 °F 24.8 °F 80% 30.19 in 10.0 mi East 10.4 mph - N/A   Overcast
3:54 AM 30.2 °F 21.3 °F 24.8 °F 80% 30.18 in 10.0 mi East 10.4 mph - N/A   Overcast
4:14 AM 30.2 °F 21.3 °F 24.8 °F 80% 30.17 in 10.0 mi East 10.4 mph 18.4 mph N/A   Overcast
4:34 AM 30.2 °F 23.4 °F 24.8 °F 80% 30.17 in 10.0 mi East 6.9 mph - N/A   Overcast
5:14 AM 30.2 °F 21.3 °F 24.8 °F 80% 30.16 in 10.0 mi East 10.4 mph - N/A   Overcast
5:33 AM 30.2 °F 20.8 °F 24.8 °F 80% 30.16 in 10.0 mi East 11.5 mph - N/A   Overcast
5:54 AM 32.0 °F 21.6 °F 24.8 °F 75% 30.14 in 10.0 mi East 15.0 mph 19.6 mph N/A   Overcast
6:14 AM 30.2 °F 19.8 °F 24.8 °F 80% 30.13 in 10.0 mi East 13.8 mph - N/A   Overcast
6:34 AM 30.2 °F 20.2 °F 24.8 °F 80% 30.13 in 10.0 mi East 12.7 mph - N/A   Overcast
6:54 AM 32.0 °F 22.5 °F 24.8 °F 75% 30.13 in 10.0 mi East 12.7 mph - N/A   Overcast
7:14 AM 32.0 °F 23.6 °F 24.8 °F 75% 30.12 in 10.0 mi East 10.4 mph - N/A   Overcast
7:35 AM 32.0 °F 23.0 °F 24.8 °F 75% 30.12 in 10.0 mi East 11.5 mph - N/A   Overcast
7:54 AM 32.0 °F 21.6 °F 24.8 °F 75% 30.12 in 7.0 mi East 15.0 mph 18.4 mph N/A Snow Light Snow
8:14 AM 32.0 °F 23.0 °F 24.8 °F 75% 30.10 in 10.0 mi ESE 11.5 mph - N/A   Overcast
8:34 AM 32.0 °F 23.0 °F 24.8 °F 75% 30.09 in 10.0 mi East 11.5 mph - N/A   Overcast
8:54 AM 32.0 °F 22.5 °F 26.6 °F 80% 30.09 in 2.5 mi East 12.7 mph 19.6 mph N/A Snow Light Snow
9:14 AM 32.0 °F 24.2 °F 26.6 °F 80% 30.09 in 4.0 mi East 9.2 mph - N/A Snow Light Snow
9:34 AM 32.0 °F 23.6 °F 26.6 °F 80% 30.08 in 10.0 mi East 10.4 mph - N/A   Overcast
10:14 AM 32.0 °F 22.5 °F 26.6 °F 80% 30.06 in 1.8 mi East 12.7 mph - N/A Snow Light Snow
10:34 AM 30.2 °F 20.8 °F 28.4 °F 93% 30.05 in 2.0 mi East 11.5 mph - N/A Snow Light Snow
10:54 AM 30.2 °F 20.8 °F 28.4 °F 93% 30.04 in 1.0 mi East 11.5 mph - N/A Snow Light Snow
11:14 AM 30.2 °F 19.8 °F 28.4 °F 93% 30.03 in 1.0 mi East 13.8 mph - N/A Snow Light Snow
11:34 AM 30.2 °F 19.8 °F 28.4 °F 93% 30.01 in 0.8 mi East 13.8 mph - N/A Snow Light Snow
11:54 AM 30.2 °F 21.3 °F 28.4 °F 93% 29.99 in 1.0 mi ENE 10.4 mph - N/A Snow Light Snow
12:14 PM 30.2 °F 20.2 °F 28.4 °F 93% 29.97 in 0.5 mi East 12.7 mph 17.3 mph N/A Snow Snow
12:34 PM 30.2 °F 21.3 °F 28.4 °F 93% 29.97 in 1.8 mi ENE 10.4 mph - N/A Snow Light Snow
12:54 PM 32.0 °F 21.6 °F 28.4 °F 87% 29.95 in 1.5 mi ENE 15.0 mph 20.7 mph N/A Snow Light Snow
1:14 PM 30.2 °F 18.9 °F 30.2 °F 100% 29.93 in 0.8 mi East 16.1 mph - N/A Snow Light Snow
1:55 PM 32.0 °F 20.5 °F 30.2 °F 93% 29.89 in 1.2 mi East 18.4 mph - N/A Snow Light Snow
2:14 PM 32.0 °F 21.6 °F 30.2 °F 93% 29.88 in 1.8 mi ENE 15.0 mph - N/A Snow Light Snow
2:34 PM 32.0 °F 22.1 °F 30.2 °F 93% 29.88 in 5.0 mi East 13.8 mph - N/A Snow Light Snow
2:54 PM 32.0 °F 22.5 °F 30.2 °F 93% 29.88 in 2.5 mi East 12.7 mph - N/A Snow Light Snow
3:14 PM 32.0 °F 23.0 °F 30.2 °F 93% 29.88 in 2.0 mi East 11.5 mph - N/A Snow Light Snow
3:34 PM 32.0 °F 22.5 °F 30.2 °F 93% 29.87 in 5.0 mi East 12.7 mph - N/A   Overcast
3:54 PM 32.0 °F 23.6 °F 30.2 °F 93% 29.86 in 2.0 mi East 10.4 mph - N/A Snow Light Snow
4:14 PM 32.0 °F 23.6 °F 30.2 °F 93% 29.85 in 2.0 mi East 10.4 mph - N/A Snow Light Snow
4:34 PM 32.0 °F 24.8 °F 30.2 °F 93% 29.85 in 1.8 mi East 8.1 mph - N/A Snow Light Snow
4:54 PM 32.0 °F 23.6 °F 32.0 °F 100% 29.85 in 4.0 mi East 10.4 mph - N/A Snow Light Snow
5:14 PM 32.0 °F 24.2 °F 32.0 °F 100% 29.85 in 7.0 mi ENE 9.2 mph - N/A   Overcast
5:34 PM 32.0 °F 24.8 °F 32.0 °F 100% 29.84 in 4.0 mi East 8.1 mph - N/A Snow Light Snow
5:54 PM 32.0 °F 24.8 °F 32.0 °F 100% 29.84 in 1.8 mi East 8.1 mph - N/A Snow Light Snow
6:14 PM 32.0 °F 24.8 °F 32.0 °F 100% 29.84 in 2.0 mi ENE 8.1 mph - N/A Snow Light Snow
6:35 PM 32.0 °F 25.6 °F 32.0 °F 100% 29.84 in 2.5 mi ENE 6.9 mph - N/A Snow Light Snow
6:54 PM 32.0 °F 26.4 °F 32.0 °F 100% 29.84 in 3.0 mi ENE 5.8 mph - N/A Snow Light Snow
7:14 PM 32.0 °F 26.4 °F 32.0 °F 100% 29.84 in 4.0 mi ENE 5.8 mph - N/A Snow Light Snow
7:35 PM 32.0 °F 27.5 °F 32.0 °F 100% 29.84 in 3.0 mi ENE 4.6 mph - N/A Snow Light Snow
7:54 PM 32.0 °F 26.4 °F 32.0 °F 100% 29.85 in 2.5 mi NE 5.8 mph - N/A Snow Light Snow
8:14 PM 32.0 °F 27.5 °F 32.0 °F 100% 29.84 in 1.0 mi NE 4.6 mph - N/A Snow Light Snow
8:35 PM 32.0 °F 28.7 °F 32.0 °F 100% 29.85 in 1.8 mi NE 3.5 mph - N/A Snow Light Snow
8:54 PM 32.0 °F 27.5 °F 32.0 °F 100% 29.85 in 2.0 mi NE 4.6 mph - N/A Snow Light Snow
9:14 PM 32.0 °F 27.5 °F 32.0 °F 100% 29.85 in 2.5 mi NE 4.6 mph - N/A Snow Light Snow
9:34 PM 32.0 °F 27.5 °F 32.0 °F 100% 29.85 in 3.0 mi NE 4.6 mph - N/A Snow Light Snow
9:54 PM 32.0 °F 27.5 °F 32.0 °F 100% 29.85 in 3.0 mi NE 4.6 mph - N/A Snow Light Snow
10:15 PM 32.0 °F 27.5 °F 32.0 °F 100% 29.85 in 3.0 mi NE 4.6 mph - N/A Snow Light Snow
10:34 PM 32.0 °F - 32.0 °F 100% 29.85 in 4.0 mi Calm Calm - N/A Snow Light Snow
10:54 PM 32.0 °F - 32.0 °F 100% 29.84 in 5.0 mi Calm Calm - N/A Snow Light Snow
11:14 PM 32.0 °F 28.7 °F 32.0 °F 100% 29.84 in 7.0 mi North 3.5 mph - N/A Snow Light Snow
11:34 PM 32.0 °F 28.7 °F 32.0 °F 100% 29.84 in 10.0 mi North 3.5 mph - N/A   Overcast
11:54 PM 32.0 °F - 32.0 °F 100% 29.84 in 10.0 mi Calm Calm - N/A   Overcast